Home   Weather   Keflavík   Past weeks

Flag for Iceland Past Weather in Keflavík, Iceland — Yesterday and Last 2 Weeks

41 °F

Partly cloudy.

Feels Like: 33 °F
Forecast: N/A
Wind: 14 mph from Southwest

Location: Keflavikurflugvollur

Current Time: Oct 26, 2016 at 7:26:10 PM

Latest Report: Oct 26, 2016 at 7:00 PM

Visibility: N/A

Pressure: 29.18 "Hg

Humidity: 81%

Dew Point: 36 °F

Location of KeflavíkLocation

Past Weather in Keflavík — Graph


Keflavík Temperature Yesterday

Maximum temperature yesterday: 46 °F (at 2:00 PM)
Minimum temperature yesterday: 34 °F (at 12:00 AM)
Average temperature yesterday: 40 °F

High & Low Weather Summary for the Past Weeks

High52 °F (Oct 12, 10:00 PM)100% (Oct 11, 6:00 PM)30.24 "Hg (Oct 11, 6:00 PM)
Low32 °F (Oct 24, 9:00 PM)66% (Oct 24, 2:30 PM)28.62 "Hg (Oct 26, 1:30 AM)
Average45 °F91%29.66 "Hg
* Reported Oct 11 6:00 PM — Oct 26 6:00 PM, Keflavík, Weather by CustomWeather, © 2016

Note: Actual official high and low records may vary slightly from our data, if they occured in-between our weather recording intervals... More about our weather records


Keflavík Weather History for the Previous 24 Hours

Scroll right to see more
Time TempWeatherWind HumidityBarometerVisibility
6:00 PM
Wed, Oct 26
41 °FScattered showers. Passing clouds.17 mph81%29.18 "HgN/A
5:30 PM41 °FScattered showers. Partly sunny.17 mph81%29.18 "HgN/A
5:00 PM43 °FBroken clouds.20 mph76%29.21 "HgN/A
4:30 PM43 °FScattered showers. Partly sunny.22 mph76%29.21 "HgN/A
4:00 PM43 °FPartly sunny.24 mph76%29.21 "HgN/A
3:30 PM43 °FPartly sunny.29 mph76%29.21 "HgN/A
3:00 PM43 °FPartly sunny.30 mph76%29.21 "HgN/A
2:30 PM43 °FPartly sunny.32 mph81%29.18 "HgN/A
2:00 PM43 °FOvercast.32 mph81%29.18 "HgN/A
1:30 PM43 °FScattered showers. Overcast.32 mph81%29.18 "HgN/A
1:00 PM43 °FScattered showers. Overcast.35 mph87%29.18 "HgN/A
12:30 PM43 °FDrizzle. Overcast.32 mph87%29.15 "HgN/A
12:00 PM43 °FDrizzle. Overcast.33 mph93%29.15 "Hg4 mi
11:30 AM43 °FScattered showers. Mostly cloudy.32 mph93%29.12 "HgN/A
11:00 AM43 °FScattered showers. Mostly cloudy.29 mph93%29.12 "HgN/A
10:30 AM45 °FScattered showers. Broken clouds.30 mph87%29.09 "HgN/A
10:00 AM43 °FDrizzle. Broken clouds.30 mph100%29.06 "Hg2 mi
9:30 AM45 °FLight rain. Broken clouds.24 mph93%29.06 "HgN/A
9:00 AM45 °FScattered showers. Broken clouds.26 mph87%29.03 "HgN/A
8:30 AM45 °FLight rain. Partly cloudy.29 mph93%29.00 "HgN/A
8:00 AM45 °FScattered showers. Partly cloudy.31 mph93%28.97 "HgN/A
7:30 AM45 °FLight rain. Partly cloudy.31 mph93%28.91 "HgN/A
7:00 AM45 °FScattered showers. Partly cloudy.28 mph93%28.88 "HgN/A
6:30 AM45 °FRain. Partly cloudy.22 mph100%28.85 "Hg2 mi
6:00 AM46 °FLight rain. Partly cloudy.26 mph93%28.80 "HgN/A
5:30 AM46 °FScattered showers. Partly cloudy.28 mph93%28.77 "HgN/A
5:00 AM45 °FLight rain. Partly cloudy.25 mph100%28.71 "HgN/A
4:30 AM45 °FPartly cloudy.21 mph100%28.68 "HgN/A
4:00 AM45 °FPartly cloudy.18 mph100%28.65 "HgN/A
3:30 AM45 °FLight rain. Partly cloudy.17 mph100%28.65 "HgN/A
3:00 AM45 °FLight rain. Partly cloudy.15 mph100%28.62 "HgN/A
2:30 AM45 °FPartly cloudy.16 mph93%28.62 "HgN/A
2:00 AM45 °FScattered showers. Partly cloudy.16 mph100%28.62 "HgN/A
1:30 AM45 °FLight rain. Partly cloudy.17 mph100%28.62 "Hg4 mi
1:00 AM45 °FPartly cloudy.17 mph100%28.65 "Hg4 mi
12:30 AM45 °FScattered showers. Partly cloudy.17 mph93%28.65 "HgN/A
12:00 AM45 °FScattered showers. Partly cloudy.18 mph93%28.65 "HgN/A
11:30 PM
Tue, Oct 25
45 °FScattered showers. Partly cloudy.20 mph93%28.68 "HgN/A
11:00 PM45 °FSprinkles. Partly cloudy.20 mph100%28.68 "Hg6 mi
10:30 PM45 °FPartly cloudy.23 mph100%28.68 "Hg2 mi
10:00 PM45 °FPassing clouds.24 mph93%28.71 "Hg2 mi
9:30 PM45 °FPartly cloudy.26 mph93%28.71 "Hg6 mi
9:00 PM45 °FScattered showers. Partly cloudy.25 mph93%28.74 "Hg6 mi
8:30 PM43 °FRain showers. Mostly cloudy.21 mph100%28.77 "Hg2 mi
8:00 PM45 °FScattered showers. Partly cloudy.21 mph87%28.80 "HgN/A
7:30 PM45 °FScattered showers. Partly cloudy.22 mph87%28.80 "HgN/A
7:00 PM43 °FScattered showers. Passing clouds.20 mph93%28.82 "HgN/A
Weather by CustomWeather, © 2016

See weather overviewHow to use our weather pages